Location: Poughquag
(41.6090°N, 73.6820°W)
Time: 03:08:30
(UTC-04:00)

Vanguard 1 - Pass Details

Date: 04 June 2020
Orbit: 650 x 3833 km, 34.2° (Epoch: 06 July)

Event Time Altitude Azimuth Distance (km) Brightness Sun altitude
Rises 02:33:04 0° 183° (S) 4,753 - -21.8°
Reaches altitude 10° 02:37:13 10° 165° (SSE) 4,269 - -21.5°
Exits shadow 02:38:04 12° 161° (SSE) 4,220 12.9 -21.4°
Maximum altitude 02:44:46 19° 126° (SE) 4,423 13.3 -20.9°
Drops below altitude 10° 02:54:56 10° 91° (E) 6,031 14.4 -20.0°
Sets 03:02:43 0° 77° (ENE) 7,560 15.3 -19.2°
